Location: Newark
(43.8369°N, 4.3600°E)
Time: 15:13:51
(UTC+00:00)

N. Korean satellite - Visible Passes

Search period start: 09 December 2019 00:00
Search period end: 19 December 2019 00:00
Orbit: 456 x 506 km, 97.2° (Epoch: 09 December)

Date Brightness Start Highest point End Pass type
(mag) Time Alt. Az. Time Alt. Az. Time Alt. Az.
09 Dec 7.0 05:28:11 10° NNE 05:31:43 63° E 05:35:10 10° S visible
09 Dec 9.6 17:38:45 10° SW 17:41:30 19° W 17:44:16 10° NW visible
10 Dec 8.6 05:03:05 10° NE 05:06:13 29° E 05:09:16 10° SSE visible
10 Dec 8.3 17:12:28 10° SSW 17:15:57 38° W 17:19:26 10° NNW visible
11 Dec 9.8 04:38:35 10° ENE 04:40:35 14° E 04:42:35 10° SE visible
11 Dec 7.1 06:10:55 10° N 06:14:09 34° WNW 06:17:18 10° SW visible
11 Dec 6.7 16:46:47 10° S 16:50:29 82° WSW 16:54:11 10° NNW visible
12 Dec 6.3 05:45:15 10° N 05:48:47 75° WNW 05:52:14 10° SSW visible
12 Dec 10.0 17:57:08 10° WSW 17:58:43 12° W 18:00:20 10° WNW visible
13 Dec 7.5 05:19:54 10° NNE 05:23:20 48° E 05:26:40 10° S visible
13 Dec 9.2 17:30:03 10° SSW 17:33:06 24° W 17:36:08 10° NW visible
14 Dec 9.0 04:54:56 10° NE 04:57:47 23° E 05:00:34 10° SSE visible
14 Dec 7.7 06:28:20 10° NNW 06:31:05 21° WNW 06:33:46 10° WSW visible
14 Dec 7.7 17:03:59 10° S 17:07:34 48° W 17:11:09 10° NNW visible
15 Dec 10.0 04:30:56 10° ENE 04:32:07 11° E 04:33:18 10° ESE visible
15 Dec 6.8 06:02:26 10° N 06:05:47 43° WNW 06:09:03 10° SW visible
15 Dec 6.6 16:38:26 10° SSE 16:42:07 78° ENE 16:45:48 10° N visible
16 Dec 6.4 05:36:52 10° NNE 05:40:23 84° ESE 05:43:49 10° S visible
16 Dec 9.9 17:48:04 10° SW 17:50:17 15° W 17:52:29 10° NW visible
17 Dec 8.0 05:11:37 10° NNE 05:14:53 37° E 05:18:06 10° SSE visible
17 Dec 8.8 17:21:26 10° SSW 17:24:41 29° W 17:27:55 10° NW visible
18 Dec 9.4 04:46:50 10° NE 04:49:18 18° E 04:51:45 10° SE visible
18 Dec 7.4 06:19:45 10° NNW 06:22:43 26° WNW 06:25:38 10° SW visible
18 Dec 7.2 16:55:33 10° S 16:59:11 62° W 17:02:47 10° NNW visible
